Regional Weather Roundup
Issued by NWS Newport/Morehead, NC

Current Version | Previous Version | Graphics & Text | Print | Product List | Glossary Off
Versions: 1 2 3 4 5 6 7 8 9 10 11 12 13 14 15 16 17 18 19 20 21 22 23 24 25 26 27 28 29 30 31 32 33 34 35 36 37 38 39 40 41 42 43 44 45 46 47 48 49 50

349
ASUS42 KMHX 181425
RWRMHX
WEATHER ROUNDUP FOR EASTERN NORTH CAROLINA
NATIONAL WEATHER SERVICE NEWPORT/MOREHEAD CITY NC
900 AM EST THU JAN 18 2018

NOTE: "FAIR" INDICATES FEW OR NO CLOUDS BELOW 12,000 FEET
WITH NO SIGNIFICANT WEATHER AND/OR OBSTRUCTIONS TO VISIBILITY

NCZ015>017-031-032-045>047-102-103-181500-
NORTH COAST

CITY           SKY/WX    TMP DP  RH WIND       PRES   REMARKS
EDENTON        FAIR      24  14  65 NW9G18    30.24R
ELIZABETH CITY FAIR      21  12  68 W17       30.20R WCI   7
KITTY HAWK     FAIR      24  16  71 NW8G17    30.16R
MANTEO         FAIR      24  15  68 NW10G22   30.18R WCI  14

$$

NCZ045>047-081-094-103-104-181500-
CENTRAL COAST

CITY           SKY/WX    TMP DP  RH WIND       PRES   REMARKS
FRISCO         PTSUNNY   26  20  77 NW16G26   30.17R WCI  14

$$

NCZ095-097-098-100-101-181500-
SOUTHERN COAST

CITY           SKY/WX    TMP DP  RH WIND       PRES   REMARKS
BEAUFORT       FLURRIES  27  18  69 NW16      30.24R WCI  15
CEDAR ISLAND   NOT AVBL
JACKSONVILLE   FAIR      24  15  68 W14       30.29R WCI  12
PINEY ISLAND   NOT AVBL
WILMINGTON     FAIR      24  14  65 NW16      30.31R WCI  11


$$

NCZ011>013-027>030-043-044-078>080-089-090>093-098-181500-
COASTAL PLAIN

CITY           SKY/WX    TMP DP  RH WIND       PRES   REMARKS
AHOSKIE        FAIR      20  11  67 CALM      30.26S
CLINTON        FAIR      21  13  70 CALM      30.34R
ELIZABETHTOWN  NOT AVBL
GOLDSBORO      FAIR      22  10  58 NW9       30.28S
GREENVILLE     FAIR      23  10  58 NW9       30.29S
HAVELOCK       SUNNY     27  18  69 NW13      30.25R WCI  16
KENANSVILLE    FAIR      23  12  63 W10       30.32R WCI  12
KINSTON        SUNNY     23  12  63 NW8       30.29R
NEW BERN       FAIR      24  15  68 N12       30.27R WCI  13
RICHLANDS      FAIR      27  15  61 W10       30.30R WCI  17
ROCKY MOUNT    FAIR      19  11  70 W9        30.28R
WASHINGTON     FAIR      24  14  65 NW5       30.27R
WHITEVILLE     FAIR      24  11  59 W7        30.35R

$$

AMZ130-135-150-152-154-156-158-170-250-252-270-ANZ085-086-088-633-658-670-181500-
MARINE OBSERVATIONS

STATION/POSITION TIME  TEMP    WIND        PRES    WAVE   SWELL
                       AIR SEA DIR/SP/G            HT/PER HT/PER
                 (UTC) (F)     (DEG/KT/KT) (MB)    (FT/S) (FT/S)
CHESAPEAKE LIGHT NOT AVBL
64 E VA BEACH    1350   34 55  330/ 29/ 35 1018.0   11/ 8
DUCK             1400   25 38  330/ 20/ 25 1021.0
2 E DUCK         1400      40                N/A     7/ 8   2/11
OREGON INLET     1400   25 37  320/ 16/ 20 1021.0
13E OREGON INLT  1348      42                N/A    11/ 8   8/ 8
HATTERAS CG      1400   26 40  330/ 23/ 26 1021.2
DIAMOND BUOY     1410   29 54  310/ 25/ 31 1020.9
CAPE LOOKOUT     1400          330/ 19/ 22 1023.5
BEAUFORT LAB     1400   26 45  330/ 10/ 16 1023.7
30 SE NEW RVR IN 1308   32 60   10/ 19/ 25 1023.8
30 SE NEW RVR IN 1400      59                N/A     7/ 5   2/11
27 SE WRIGHTSVLE 1308   32 61  330/ 21/ 31 1024.7
5 SE WRIGHTSVLE  1408   26 47  320/ 16/ 21 1025.3
225 S CAPE HAT   1350   52 70  310/ 29/ 35 1018.2   13/10   8/10
41 SE CHARLESTON 1410   35 67  330/ 21/ 27 1027.5

$$




USA.gov is the U.S. government's official web portal to all federal, state and local government web resources and services.